Voltar ao catálogo

FREGAT DEB

LostUNKNOWN
NORAD 46520·DEBRIS·🇷🇺 Russia

Lançado Jul 18, 2011 de Baikonur Cosmodrome

Loading…

Próximas Passagens (próximas 24 horas)

TLE

ObsoletoSource: Space-Track

Época: Apr 21, 2022, 02:00 UTC

1 46520U 11037LY  22111.08377025  .00367144  00000-0  25882+0 0  9997
2 46520  51.3121 117.3671 2102666 318.7339  27.1859 10.55420979 57562

Acompanhe FREGAT DEB em tempo real com AllMySat

Download on the App Store